| time (UTC) | temp C | wind direction | speed KPH | gust KPH | rain 1hr cm | rain 24hr cm | rain mn cm | humidity % | barometer mb |
| 20260507155543 | 13 | 294 | 11.3 | 30.6 | 0.00 | 0.71 | 0.00 | 42 | 1006.3 |
| 20260507155045 | 13 | 290 | 12.9 | 25.7 | 0.00 | 0.71 | 0.00 | 43 | 1006.4 |
| 20260507154542 | 13 | 312 | 8.0 | 25.7 | 0.00 | 0.71 | 0.00 | 49 | 1006.4 |
| 20260507154042 | 13 | 205 | 3.2 | 33.8 | 0.00 | 0.71 | 0.00 | 51 | 1006.4 |
| 20260507153540 | 13 | 301 | 11.3 | 25.7 | 0.00 | 0.71 | 0.00 | 53 | 1006.6 |
| 20260507153039 | 13 | 198 | 6.4 | 30.6 | 0.00 | 0.71 | 0.00 | 52 | 1006.7 |
| 20260507152537 | 13 | 267 | 9.7 | 30.6 | 0.00 | 0.71 | 0.00 | 54 | 1006.7 |
| 20260507152037 | 13 | 282 | 11.3 | 24.1 | 0.00 | 0.71 | 0.00 | 59 | 1006.6 |
| 20260507151534 | 12 | 258 | 4.8 | 12.9 | 0.00 | 0.71 | 0.00 | 61 | 1006.7 |
| 20260507151033 | 12 | 165 | 6.4 | 12.9 | 0.00 | 0.71 | 0.00 | 60 | 1006.8 |
| 20260507150536 | 12 | 344 | 4.8 | 11.3 | 0.00 | 0.71 | 0.00 | 61 | 1006.9 |
| 20260507150031 | 12 | 190 | 4.8 | 12.9 | 0.00 | 0.71 | 0.00 | 62 | 1007.0 |
| 20260507145530 | 12 | 248 | 4.8 | 16.1 | 0.00 | 0.71 | 0.00 | 61 | 1007.0 |
| 20260507145033 | 12 | 248 | 8.0 | 16.1 | 0.00 | 0.71 | 0.00 | 62 | 1007.0 |
| 20260507144542 | 12 | 229 | 8.0 | 16.1 | 0.00 | 0.71 | 0.00 | 62 | 1006.9 |
| 20260507144036 | 12 | 129 | 1.6 | 11.3 | 0.00 | 0.71 | 0.00 | 62 | 1006.9 |
| 20260507143528 | 12 | 274 | 1.6 | 19.3 | 0.00 | 0.71 | 0.00 | 63 | 1007.0 |
| 20260507143031 | 12 | 252 | 8.0 | 19.3 | 0.00 | 0.71 | 0.00 | 62 | 1007.0 |
| 20260507142528 | 12 | 186 | 4.8 | 16.1 | 0.00 | 0.71 | 0.00 | 64 | 1006.9 |
| 20260507142027 | 12 | 325 | 4.8 | 14.5 | 0.00 | 0.71 | 0.00 | 64 | 1006.9 |
| 20260507141529 | 11 | 241 | 4.8 | 16.1 | 0.00 | 0.71 | 0.00 | 64 | 1006.9 |
| 20260507141027 | 11 | 189 | 6.4 | 14.5 | 0.00 | 0.71 | 0.00 | 63 | 1007.0 |
| 20260507140526 | 11 | 332 | 8.0 | 17.7 | 0.00 | 0.71 | 0.00 | 62 | 1006.9 |
| 20260507140029 | 12 | 209 | 3.2 | 17.7 | 0.00 | 0.71 | 0.00 | 62 | 1006.9 |
| 20260507135525 | 12 | 213 | 9.7 | 17.7 | 0.00 | 0.71 | 0.00 | 62 | 1006.9 |
| 20260507135024 | 12 | 297 | 9.7 | 16.1 | 0.00 | 0.71 | 0.00 | 62 | 1006.9 |
| 20260507134524 | 12 | 263 | 4.8 | 11.3 | 0.00 | 0.71 | 0.00 | 63 | 1006.9 |
| 20260507134026 | 12 | 234 | 3.2 | 14.5 | 0.00 | 0.71 | 0.00 | 64 | 1007.0 |
| 20260507133522 | 12 | 296 | 4.8 | 14.5 | 0.00 | 0.71 | 0.00 | 66 | 1007.0 |
| 20260507133020 | 11 | 329 | 3.2 | 9.7 | 0.00 | 0.71 | 0.00 | 68 | 1007.0 |
| 20260507132518 | 11 | 69 | 3.2 | 8.0 | 0.00 | 0.71 | 0.00 | 68 | 1007.0 |
| 20260507132017 | 11 | 246 | 3.2 | 14.5 | 0.00 | 0.71 | 0.00 | 68 | 1007.2 |
| 20260507131517 | 11 | 338 | 3.2 | 14.5 | 0.00 | 0.71 | 0.00 | 68 | 1007.3 |
| 20260507131014 | 11 | 204 | 3.2 | 11.3 | 0.00 | 0.71 | 0.00 | 70 | 1007.3 |
| 20260507130514 | 10 | 289 | 4.8 | 11.3 | 0.00 | 0.71 | 0.00 | 71 | 1007.3 |
| 20260507130025 | 10 | 314 | 1.6 | 9.7 | 0.00 | 0.71 | 0.00 | 71 | 1007.3 |
| 20260507125511 | 10 | 5 | 1.6 | 12.9 | 0.00 | 0.71 | 0.00 | 71 | 1007.3 |
| 20260507125011 | 10 | 288 | 6.4 | 12.9 | 0.00 | 0.71 | 0.00 | 73 | 1007.3 |
| 20260507124515 | 10 | 337 | 6.4 | 11.3 | 0.00 | 0.71 | 0.00 | 76 | 1007.3 |
| 20260507124010 | 10 | 75 | 1.6 | 11.3 | 0.00 | 0.71 | 0.00 | 74 | 1007.2 |
| 20260507123511 | 10 | 250 | 3.2 | 11.3 | 0.00 | 0.71 | 0.00 | 76 | 1007.2 |
| 20260507123007 | 10 | 346 | 3.2 | 9.7 | 0.00 | 0.71 | 0.00 | 77 | 1007.2 |
| 20260507122507 | 9 | 222 | 1.6 | 9.7 | 0.00 | 0.71 | 0.00 | 78 | 1007.4 |
| 20260507122006 | 9 | 306 | 6.4 | 9.7 | 0.00 | 0.71 | 0.00 | 79 | 1007.5 |
| 20260507121505 | 9 | 287 | 4.8 | 9.7 | 0.00 | 0.71 | 0.00 | 79 | 1007.6 |
| 20260507121004 | 8 | 304 | 3.2 | 9.7 | 0.00 | 0.71 | 0.00 | 80 | 1007.7 |
| 20260507120502 | 8 | 190 | 3.2 | 14.5 | 0.00 | 0.71 | 0.00 | 81 | 1007.7 |
| 20260507120006 | 8 | 263 | 8.0 | 14.5 | 0.00 | 0.71 | 0.00 | 82 | 1007.6 |
| 20260507115502 | 8 | 302 | 4.8 | 12.9 | 0.00 | 0.71 | 0.00 | 83 | 1007.7 |
| 20260507115059 | 8 | 342 | 4.8 | 14.5 | 0.00 | 0.71 | 0.00 | 83 | 1007.7 |
| 20260507114604 | 8 | 287 | 4.8 | 16.1 | 0.00 | 0.71 | 0.00 | 84 | 1007.6 |
| 20260507114101 | 7 | 287 | 8.0 | 16.1 | 0.00 | 0.71 | 0.00 | 85 | 1007.4 |
| 20260507113557 | 7 | 290 | 4.8 | 9.7 | 0.00 | 0.71 | 0.00 | 85 | 1007.3 |
| 20260507113056 | 7 | 285 | 1.6 | 6.4 | 0.00 | 0.71 | 0.00 | 85 | 1007.3 |
| 20260507112557 | 7 | 291 | 1.6 | 6.4 | 0.00 | 0.71 | 0.00 | 85 | 1007.3 |
| 20260507112056 | 7 | 237 | 3.2 | 8.0 | 0.00 | 0.71 | 0.00 | 85 | 1007.3 |
| 20260507111600 | 7 | 259 | 4.8 | 8.0 | 0.00 | 0.71 | 0.00 | 84 | 1007.3 |
| 20260507111057 | 7 | 297 | 1.6 | 8.0 | 0.00 | 0.71 | 0.00 | 84 | 1007.4 |
| 20260507110553 | 7 | 303 | 1.6 | 9.7 | 0.00 | 0.71 | 0.00 | 84 | 1007.3 |
| 20260507110053 | 7 | 292 | 6.4 | 9.7 | 0.00 | 0.71 | 0.00 | 84 | 1007.1 |
| 20260507105552 | 7 | 293 | 3.2 | 11.3 | 0.00 | 0.71 | 0.00 | 84 | 1007.1 |
| 20260507105051 | 7 | 325 | 3.2 | 11.3 | 0.00 | 0.71 | 0.00 | 84 | 1007.0 |
| 20260507104551 | 7 | 257 | 6.4 | 11.3 | 0.00 | 0.71 | 0.00 | 84 | 1006.9 |
| 20260507104050 | 7 | 324 | 0.0 | 6.4 | 0.00 | 0.71 | 0.00 | 84 | 1006.8 |
| 20260507103549 | 7 | 292 | 1.6 | 6.4 | 0.00 | 0.71 | 0.00 | 84 | 1007.0 |
| 20260507103049 | 7 | 327 | 1.6 | 6.4 | 0.00 | 0.71 | 0.00 | 83 | 1007.0 |
| 20260507102548 | 7 | 279 | 1.6 | 6.4 | 0.00 | 0.71 | 0.00 | 83 | 1006.9 |
| 20260507102048 | 7 | 329 | 0.0 | 8.0 | 0.00 | 0.71 | 0.00 | 83 | 1006.8 |
| 20260507101601 | 7 | 272 | 3.2 | 8.0 | 0.00 | 0.71 | 0.00 | 83 | 1006.9 |
| 20260507101046 | 7 | 257 | 3.2 | 11.3 | 0.00 | 0.71 | 0.00 | 83 | 1006.9 |
| 20260507100545 | 7 | 242 | 3.2 | 11.3 | 0.00 | 0.71 | 0.00 | 83 | 1006.6 |
| 20260507100044 | 7 | 277 | 0.0 | 6.4 | 0.00 | 0.71 | 0.00 | 82 | 1006.7 |
| 20260507095544 | 7 | 275 | 3.2 | 9.7 | 0.00 | 0.71 | 0.00 | 82 | 1007.1 |
| 20260507095044 | 7 | 300 | 1.6 | 9.7 | 0.00 | 0.71 | 0.00 | 82 | 1007.0 |
| 20260507094544 | 7 | 302 | 1.6 | 9.7 | 0.00 | 0.71 | 0.00 | 82 | 1007.1 |
| 20260507094042 | 7 | 241 | 1.6 | 9.7 | 0.00 | 0.71 | 0.00 | 82 | 1006.8 |
| 20260507093542 | 7 | 215 | 1.6 | 11.3 | 0.00 | 0.71 | 0.00 | 82 | 1006.9 |
| 20260507093045 | 7 | 259 | 3.2 | 12.9 | 0.00 | 0.71 | 0.00 | 82 | 1006.8 |
| 20260507092542 | 7 | 316 | 4.8 | 16.1 | 0.00 | 0.71 | 0.00 | 83 | 1006.8 |
| 20260507092042 | 8 | 298 | 3.2 | 12.9 | 0.00 | 0.71 | 0.00 | 83 | 1006.8 |
| 20260507091540 | 8 | 293 | 1.6 | 8.0 | 0.00 | 0.71 | 0.00 | 83 | 1007.0 |
| 20260507091040 | 8 | 282 | 0.0 | 8.0 | 0.00 | 0.71 | 0.00 | 83 | 1006.9 |
| 20260507090539 | 8 | 284 | 1.6 | 8.0 | 0.00 | 0.71 | 0.00 | 83 | 1007.1 |
| 20260507090038 | 8 | 328 | 1.6 | 11.3 | 0.00 | 0.71 | 0.00 | 83 | 1007.1 |
| 20260507085541 | 8 | 234 | 3.2 | 12.9 | 0.00 | 0.71 | 0.00 | 83 | 1007.1 |
| 20260507085038 | 8 | 279 | 4.8 | 14.5 | 0.00 | 0.71 | 0.00 | 83 | 1006.9 |
| 20260507084539 | 8 | 292 | 4.8 | 14.5 | 0.00 | 0.71 | 0.00 | 84 | 1006.6 |
| 20260507084034 | 8 | 240 | 6.4 | 14.5 | 0.00 | 0.71 | 0.00 | 84 | 1006.6 |
| 20260507083535 | 8 | 288 | 3.2 | 11.3 | 0.00 | 0.71 | 0.00 | 84 | 1006.5 |
| 20260507083040 | 8 | 296 | 3.2 | 11.3 | 0.00 | 0.71 | 0.00 | 84 | 1006.4 |
| 20260507082533 | 8 | 291 | 3.2 | 12.9 | 0.00 | 0.71 | 0.00 | 84 | 1006.6 |
| 20260507082033 | 8 | 215 | 4.8 | 14.5 | 0.00 | 0.71 | 0.00 | 84 | 1006.4 |
| 20260507081537 | 8 | 258 | 6.4 | 14.5 | 0.00 | 0.71 | 0.00 | 84 | 1006.3 |
| 20260507081031 | 8 | 267 | 4.8 | 12.9 | 0.00 | 0.71 | 0.00 | 84 | 1006.3 |
| 20260507080531 | 8 | 245 | 3.2 | 11.3 | 0.00 | 0.71 | 0.00 | 85 | 1006.2 |
| 20260507080033 | 8 | 275 | 3.2 | 11.3 | 0.00 | 0.71 | 0.00 | 84 | 1006.2 |
| 20260507075530 | 8 | 248 | 1.6 | 12.9 | 0.00 | 0.71 | 0.00 | 84 | 1006.4 |
| 20260507075030 | 8 | 225 | 6.4 | 12.9 | 0.00 | 0.71 | 0.00 | 84 | 1006.7 |
| 20260507074529 | 8 | 256 | 4.8 | 9.7 | 0.00 | 0.71 | 0.00 | 84 | 1006.7 |
| 20260507074027 | 8 | 211 | 0.0 | 4.8 | 0.00 | 0.71 | 0.00 | 84 | 1006.6 |
| 20260507073527 | 8 | 211 | 1.6 | 11.3 | 0.00 | 0.71 | 0.00 | 84 | 1006.5 |
| 20260507073026 | 8 | 292 | 3.2 | 12.9 | 0.00 | 0.71 | 0.00 | 84 | 1006.3 |
| 20260507072527 | 8 | 310 | 3.2 | 8.0 | 0.00 | 0.71 | 0.00 | 84 | 1006.1 |
| 20260507072026 | 8 | 227 | 3.2 | 14.5 | 0.00 | 0.71 | 0.00 | 85 | 1006.0 |
| 20260507071528 | 8 | 280 | 8.0 | 14.5 | 0.00 | 0.71 | 0.00 | 85 | 1006.1 |
| 20260507071024 | 8 | 5 | 0.0 | 14.5 | 0.00 | 0.71 | 0.00 | 85 | 1006.0 |
| 20260507070523 | 8 | 253 | 3.2 | 19.3 | 0.00 | 0.71 | 0.00 | 85 | 1006.1 |
| 20260507070024 | 8 | 273 | 1.6 | 19.3 | 0.00 | 0.71 | 0.00 | 85 | 1005.8 |
| 20260507065523 | 8 | 274 | 8.0 | 20.9 | 0.00 | 0.71 | 0.00 | 85 | 1006.1 |
| 20260507065021 | 8 | 360 | 8.0 | 25.7 | 0.00 | 0.71 | 0.00 | 85 | 1005.8 |
| 20260507064520 | 8 | 275 | 8.0 | 19.3 | 0.00 | 0.71 | 0.00 | 86 | 1005.7 |
| 20260507064020 | 8 | 265 | 9.7 | 17.7 | 0.00 | 0.71 | 0.00 | 86 | 1005.8 |
| 20260507063520 | 8 | 277 | 6.4 | 16.1 | 0.00 | 0.71 | 0.00 | 87 | 1006.0 |
| 20260507063019 | 8 | 292 | 6.4 | 16.1 | 0.00 | 0.71 | 0.00 | 87 | 1005.9 |
| 20260507062519 | 8 | 304 | 4.8 | 16.1 | 0.00 | 0.71 | 0.00 | 87 | 1005.7 |
| 20260507062017 | 8 | 239 | 3.2 | 9.7 | 0.00 | 0.71 | 0.00 | 88 | 1006.0 |
| 20260507061517 | 8 | 248 | 1.6 | 9.7 | 0.00 | 0.71 | 0.00 | 88 | 1006.0 |
| 20260507061015 | 8 | 301 | 4.8 | 9.7 | 0.00 | 0.71 | 0.00 | 88 | 1006.1 |
| 20260507060515 | 8 | 271 | 0.0 | 12.9 | 0.00 | 0.71 | 0.00 | 88 | 1005.6 |
| 20260507060015 | 8 | 314 | 3.2 | 12.9 | 0.00 | 0.71 | 0.00 | 88 | 1005.9 |
| 20260507055514 | 8 | 284 | 4.8 | 16.1 | 0.00 | 0.71 | 0.00 | 89 | 1006.1 |
| 20260507055014 | 8 | 240 | 1.6 | 16.1 | 0.00 | 0.71 | 0.00 | 89 | 1006.3 |
| 20260507054513 | 8 | 294 | 3.2 | 8.0 | 0.00 | 0.71 | 0.00 | 89 | 1006.2 |
| 20260507054012 | 8 | 167 | 1.6 | 8.0 | 0.00 | 0.71 | 0.00 | 89 | 1006.0 |
| 20260507053512 | 8 | 212 | 1.6 | 8.0 | 0.00 | 0.71 | 0.00 | 89 | 1006.1 |
| 20260507053011 | 8 | 284 | 1.6 | 9.7 | 0.00 | 0.71 | 0.00 | 89 | 1006.1 |
| 20260507052510 | 8 | 314 | 1.6 | 9.7 | 0.00 | 0.71 | 0.00 | 89 | 1006.1 |
| 20260507052012 | 9 | 327 | 3.2 | 8.0 | 0.00 | 0.71 | 0.00 | 89 | 1006.1 |
| 20260507051509 | 9 | 285 | 3.2 | 11.3 | 0.00 | 0.71 | 0.00 | 90 | 1006.1 |
| 20260507051007 | 9 | 330 | 1.6 | 12.9 | 0.00 | 0.71 | 0.00 | 90 | 1006.1 |
| 20260507050506 | 9 | 283 | 4.8 | 9.7 | 0.00 | 0.71 | 0.00 | 90 | 1006.2 |
| 20260507050009 | 9 | 219 | 1.6 | 6.4 | 0.00 | 0.71 | 0.00 | 90 | 1005.9 |
| 20260507045510 | 9 | 263 | 0.0 | 4.8 | 0.00 | 0.71 | 0.00 | 91 | 1006.0 |
| 20260507045006 | 10 | 274 | 1.6 | 9.7 | 0.00 | 0.71 | 0.00 | 91 | 1005.8 |
| 20260507044506 | 10 | 310 | 3.2 | 9.7 | 0.00 | 0.71 | 0.00 | 91 | 1005.9 |
| 20260507044006 | 10 | 194 | 1.6 | 11.3 | 0.00 | 0.71 | 0.00 | 91 | 1005.9 |
| 20260507043504 | 10 | 220 | 4.8 | 11.3 | 0.00 | 0.71 | 0.00 | 91 | 1006.0 |
| 20260507043003 | 10 | 303 | 4.8 | 14.5 | 0.00 | 0.71 | 0.00 | 91 | 1005.9 |
| 20260507042504 | 10 | 289 | 8.0 | 14.5 | 0.00 | 0.71 | 0.00 | 91 | 1006.0 |
| 20260507042003 | 10 | 287 | 1.6 | 11.3 | 0.00 | 0.71 | 0.00 | 91 | 1006.1 |
| 20260507041506 | 10 | 236 | 0.0 | 8.0 | 0.00 | 0.71 | 0.00 | 91 | 1006.1 |
| 20260507041001 | 10 | 230 | 1.6 | 9.7 | 0.00 | 0.71 | 0.00 | 91 | 1006.0 |
| 20260507040601 | 10 | 255 | 1.6 | 11.3 | 0.03 | 0.71 | 0.00 | 90 | 1006.0 |
| 20260507040101 | 10 | 254 | 6.4 | 14.5 | 0.03 | 0.71 | 0.00 | 90 | 1005.7 |
| 20260507035559 | 10 | 275 | 6.4 | 14.5 | 0.08 | 0.71 | 0.71 | 90 | 1005.7 |
| 20260507035059 | 10 | 243 | 6.4 | 17.7 | 0.08 | 0.71 | 0.71 | 90 | 1005.7 |
| 20260507034607 | 10 | 299 | 3.2 | 20.9 | 0.08 | 0.71 | 0.71 | 90 | 1005.8 |
| 20260507034056 | 10 | 286 | 9.7 | 20.9 | 0.08 | 0.71 | 0.71 | 89 | 1005.6 |
| 20260507033559 | 10 | 221 | 4.8 | 19.3 | 0.08 | 0.71 | 0.71 | 89 | 1005.6 |
| 20260507033056 | 10 | 242 | 6.4 | 27.4 | 0.08 | 0.71 | 0.71 | 89 | 1005.7 |
| 20260507032554 | 10 | 336 | 8.0 | 27.4 | 0.08 | 0.71 | 0.71 | 89 | 1005.4 |
| 20260507032053 | 11 | 290 | 9.7 | 25.7 | 0.08 | 0.71 | 0.71 | 89 | 1005.4 |
| 20260507031551 | 11 | 290 | 11.3 | 27.4 | 0.08 | 0.71 | 0.71 | 90 | 1005.3 |
| 20260507031052 | 11 | 282 | 8.0 | 27.4 | 0.08 | 0.71 | 0.71 | 90 | 1005.3 |
| 20260507030548 | 11 | 213 | 8.0 | 25.7 | 0.05 | 0.69 | 0.69 | 91 | 1005.4 |
| 20260507030051 | 12 | 306 | 6.4 | 25.7 | 0.05 | 0.69 | 0.69 | 91 | 1005.5 |
| 20260507025545 | 12 | 325 | 9.7 | 22.5 | 0.00 | 0.64 | 0.64 | 92 | 1005.5 |
| 20260507025044 | 12 | 268 | 6.4 | 19.3 | 0.00 | 0.64 | 0.64 | 92 | 1005.5 |
| 20260507024543 | 13 | 260 | 8.0 | 20.9 | 0.03 | 0.64 | 0.64 | 92 | 1005.4 |
| 20260507024042 | 13 | 320 | 4.8 | 20.9 | 0.03 | 0.64 | 0.64 | 93 | 1005.2 |
| 20260507023540 | 13 | 252 | 6.4 | 19.3 | 0.03 | 0.64 | 0.64 | 93 | 1005.2 |
| 20260507023038 | 13 | 289 | 9.7 | 19.3 | 0.03 | 0.64 | 0.64 | 94 | 1005.0 |
| 20260507022538 | 14 | 304 | 3.2 | 14.5 | 0.03 | 0.64 | 0.64 | 94 | 1004.9 |
| 20260507022038 | 14 | 289 | 4.8 | 17.7 | 0.03 | 0.64 | 0.64 | 94 | 1004.7 |
| 20260507021536 | 14 | 309 | 6.4 | 17.7 | 0.03 | 0.64 | 0.64 | 94 | 1004.5 |
| 20260507021035 | 14 | 269 | 3.2 | 9.7 | 0.03 | 0.64 | 0.64 | 94 | 1004.6 |
| 20260507020536 | 14 | 271 | 1.6 | 9.7 | 0.03 | 0.64 | 0.64 | 94 | 1004.5 |
| 20260507020035 | 14 | 189 | 0.0 | 3.2 | 0.03 | 0.64 | 0.64 | 94 | 1004.4 |
| 20260507015534 | 14 | 158 | 0.0 | 3.2 | 0.03 | 0.64 | 0.64 | 94 | 1004.3 |
| 20260507015034 | 14 | 158 | 0.0 | 3.2 | 0.03 | 0.64 | 0.64 | 94 | 1004.3 |
| 20260507014549 | 14 | 158 | 0.0 | 4.8 | 0.00 | 0.61 | 0.61 | 94 | 1004.3 |
| 20260507014034 | 14 | 158 | 1.6 | 4.8 | 0.00 | 0.61 | 0.61 | 94 | 1004.3 |
| 20260507013534 | 14 | 179 | 1.6 | 4.8 | 0.00 | 0.61 | 0.61 | 94 | 1004.4 |
| 20260507013043 | 14 | 174 | 1.6 | 4.8 | 0.00 | 0.61 | 0.61 | 94 | 1004.3 |
| 20260507012535 | 14 | 190 | 1.6 | 4.8 | 0.00 | 0.61 | 0.61 | 94 | 1004.3 |
| 20260507012034 | 14 | 186 | 1.6 | 4.8 | 0.00 | 0.61 | 0.61 | 94 | 1004.3 |
| 20260507011538 | 14 | 186 | 1.6 | 6.4 | 0.00 | 0.61 | 0.61 | 94 | 1004.3 |
| 20260507011033 | 14 | 184 | 3.2 | 6.4 | 0.00 | 0.61 | 0.61 | 94 | 1004.3 |
| 20260507010532 | 14 | 167 | 0.0 | 4.8 | 0.00 | 0.61 | 0.61 | 94 | 1004.3 |
| 20260507010034 | 14 | 182 | 1.6 | 4.8 | 0.00 | 0.61 | 0.61 | 94 | 1004.4 |
| 20260507005532 | 14 | 166 | 0.0 | 4.8 | 0.00 | 0.61 | 0.61 | 94 | 1004.3 |
| 20260507005031 | 14 | 166 | 0.0 | 4.8 | 0.00 | 0.61 | 0.61 | 94 | 1004.3 |
| 20260507004532 | 14 | 166 | 3.2 | 4.8 | 0.00 | 0.61 | 0.61 | 94 | 1004.3 |
| 20260507004032 | 14 | 142 | 0.0 | 4.8 | 0.00 | 0.61 | 0.61 | 94 | 1004.2 |
| 20260507003531 | 14 | 142 | 0.0 | 4.8 | 0.00 | 0.61 | 0.61 | 94 | 1004.1 |
| 20260507003031 | 14 | 179 | 3.2 | 4.8 | 0.00 | 0.61 | 0.61 | 94 | 1004.1 |
| 20260507002531 | 14 | 169 | 1.6 | 6.4 | 0.00 | 0.61 | 0.61 | 94 | 1004.1 |
| 20260507002032 | 14 | 156 | 1.6 | 4.8 | 0.00 | 0.61 | 0.61 | 94 | 1004.0 |
| 20260507001531 | 14 | 152 | 1.6 | 4.8 | 0.00 | 0.61 | 0.61 | 94 | 1004.1 |
| 20260507001031 | 14 | 141 | 1.6 | 6.4 | 0.00 | 0.61 | 0.61 | 93 | 1004.0 |
| 20260507000533 | 14 | 169 | 3.2 | 6.4 | 0.00 | 0.61 | 0.61 | 93 | 1004.0 |
| 20260507000032 | 14 | 164 | 3.2 | 6.4 | 0.00 | 0.61 | 0.61 | 93 | 1003.9 |
| 20260506235529 | 14 | 148 | 1.6 | 9.7 | 0.00 | 0.61 | 0.61 | 93 | 1003.8 |
| 20260506235029 | 14 | 173 | 1.6 | 9.7 | 0.00 | 0.61 | 0.61 | 93 | 1003.9 |
| 20260506234529 | 14 | 173 | 1.6 | 6.4 | 0.00 | 0.61 | 0.61 | 93 | 1003.8 |
| 20260506234028 | 14 | 181 | 3.2 | 6.4 | 0.00 | 0.61 | 0.61 | 93 | 1003.8 |
| 20260506233527 | 14 | 157 | 1.6 | 6.4 | 0.00 | 0.61 | 0.61 | 93 | 1003.8 |
| 20260506233027 | 14 | 140 | 3.2 | 6.4 | 0.00 | 0.61 | 0.61 | 93 | 1003.9 |
| 20260506232526 | 14 | 181 | 3.2 | 8.0 | 0.00 | 0.61 | 0.61 | 93 | 1004.0 |
| 20260506232026 | 14 | 144 | 1.6 | 8.0 | 0.00 | 0.61 | 0.61 | 93 | 1003.9 |
| 20260506231527 | 15 | 166 | 1.6 | 6.4 | 0.00 | 0.61 | 0.61 | 93 | 1003.9 |
| 20260506231025 | 14 | 148 | 3.2 | 6.4 | 0.00 | 0.61 | 0.61 | 93 | 1003.9 |
| 20260506230524 | 15 | 161 | 1.6 | 6.4 | 0.00 | 0.61 | 0.61 | 93 | 1004.0 |
| 20260506230024 | 15 | 155 | 1.6 | 6.4 | 0.03 | 0.61 | 0.61 | 93 | 1004.1 |
| 20260506225524 | 15 | 159 | 4.8 | 6.4 | 0.03 | 0.61 | 0.61 | 93 | 1004.0 |
| 20260506225027 | 15 | 144 | 3.2 | 11.3 | 0.03 | 0.61 | 0.61 | 93 | 1004.1 |
| 20260506224524 | 15 | 144 | 1.6 | 11.3 | 0.03 | 0.61 | 0.61 | 93 | 1004.0 |
| 20260506224024 | 15 | 169 | 3.2 | 6.4 | 0.03 | 0.61 | 0.61 | 93 | 1004.0 |
| 20260506223523 | 15 | 161 | 1.6 | 6.4 | 0.05 | 0.61 | 0.61 | 92 | 1004.1 |
| 20260506223024 | 15 | 171 | 1.6 | 6.4 | 0.05 | 0.61 | 0.61 | 92 | 1004.2 |
| 20260506222522 | 15 | 151 | 3.2 | 6.4 | 0.05 | 0.61 | 0.61 | 92 | 1004.2 |
| 20260506222021 | 15 | 175 | 1.6 | 8.0 | 0.05 | 0.61 | 0.61 | 92 | 1004.2 |
| 20260506221520 | 15 | 153 | 3.2 | 9.7 | 0.08 | 0.61 | 0.61 | 92 | 1004.2 |
| 20260506221019 | 15 | 175 | 4.8 | 8.0 | 0.08 | 0.61 | 0.61 | 92 | 1004.3 |
| 20260506220520 | 15 | 173 | 4.8 | 8.0 | 0.10 | 0.61 | 0.61 | 92 | 1004.3 |
| 20260506220018 | 15 | 164 | 3.2 | 8.0 | 0.08 | 0.58 | 0.58 | 92 | 1004.3 |
| 20260506215517 | 15 | 159 | 1.6 | 11.3 | 0.08 | 0.58 | 0.58 | 92 | 1004.4 |
| 20260506215016 | 15 | 173 | 4.8 | 11.3 | 0.08 | 0.58 | 0.58 | 92 | 1004.3 |
| 20260506214516 | 15 | 163 | 3.2 | 8.0 | 0.08 | 0.58 | 0.58 | 92 | 1004.4 |
| 20260506214014 | 15 | 152 | 3.2 | 8.0 | 0.10 | 0.58 | 0.58 | 92 | 1004.4 |
| 20260506213515 | 15 | 162 | 3.2 | 8.0 | 0.08 | 0.56 | 0.56 | 92 | 1004.4 |
| 20260506213016 | 15 | 126 | 3.2 | 8.0 | 0.08 | 0.56 | 0.56 | 92 | 1004.4 |
| 20260506212513 | 15 | 149 | 3.2 | 9.7 | 0.08 | 0.56 | 0.56 | 92 | 1004.5 |
| 20260506212012 | 15 | 150 | 4.8 | 9.7 | 0.05 | 0.53 | 0.53 | 92 | 1004.6 |
| 20260506211511 | 15 | 176 | 1.6 | 9.7 | 0.05 | 0.53 | 0.53 | 92 | 1004.6 |
| 20260506211011 | 15 | 177 | 4.8 | 9.7 | 0.05 | 0.53 | 0.53 | 92 | 1004.5 |
| 20260506210511 | 15 | 172 | 3.2 | 11.3 | 0.03 | 0.51 | 0.51 | 91 | 1004.6 |
| 20260506210014 | 15 | 169 | 3.2 | 8.0 | 0.05 | 0.51 | 0.51 | 91 | 1004.6 |
| 20260506205510 | 15 | 155 | 4.8 | 8.0 | 0.08 | 0.51 | 0.51 | 92 | 1004.7 |
| 20260506205009 | 16 | 173 | 3.2 | 8.0 | 0.08 | 0.51 | 0.51 | 92 | 1004.7 |
| 20260506204508 | 16 | 169 | 3.2 | 8.0 | 0.10 | 0.51 | 0.51 | 91 | 1004.7 |
| 20260506204008 | 16 | 173 | 3.2 | 8.0 | 0.08 | 0.48 | 0.48 | 91 | 1004.7 |
| 20260506203508 | 16 | 150 | 3.2 | 6.4 | 0.08 | 0.48 | 0.48 | 91 | 1004.8 |
| 20260506203008 | 16 | 151 | 1.6 | 9.7 | 0.08 | 0.48 | 0.48 | 91 | 1004.8 |
| 20260506202508 | 16 | 148 | 3.2 | 11.3 | 0.08 | 0.48 | 0.48 | 91 | 1004.8 |
| 20260506202013 | 16 | 186 | 3.2 | 11.3 | 0.08 | 0.48 | 0.48 | 91 | 1004.9 |
| 20260506201509 | 16 | 173 | 4.8 | 8.0 | 0.08 | 0.48 | 0.48 | 91 | 1004.9 |
| 20260506201007 | 16 | 164 | 1.6 | 6.4 | 0.08 | 0.48 | 0.48 | 91 | 1004.9 |
| 20260506200506 | 16 | 147 | 1.6 | 6.4 | 0.08 | 0.48 | 0.48 | 91 | 1004.9 |
| 20260506200009 | 16 | 165 | 1.6 | 4.8 | 0.05 | 0.46 | 0.46 | 91 | 1004.9 |
| 20260506195506 | 16 | 178 | 1.6 | 4.8 | 0.05 | 0.43 | 0.43 | 91 | 1005.0 |
| 20260506195006 | 16 | 180 | 3.2 | 4.8 | 0.05 | 0.43 | 0.43 | 90 | 1005.1 |
| 20260506194508 | 16 | 188 | 1.6 | 4.8 | 0.05 | 0.41 | 0.41 | 90 | 1005.1 |
| 20260506194009 | 16 | 167 | 1.6 | 4.8 | 0.08 | 0.41 | 0.41 | 90 | 1005.1 |
| 20260506193509 | 16 | 167 | 1.6 | 4.8 | 0.10 | 0.41 | 0.41 | 90 | 1005.0 |
| 20260506193006 | 16 | 164 | 1.6 | 4.8 | 0.13 | 0.41 | 0.41 | 90 | 1005.0 |
| 20260506192505 | 16 | 159 | 1.6 | 4.8 | 0.13 | 0.41 | 0.41 | 90 | 1004.9 |
| 20260506192007 | 16 | 143 | 1.6 | 4.8 | 0.18 | 0.41 | 0.41 | 89 | 1004.8 |
| 20260506191504 | 16 | 157 | 1.6 | 4.8 | 0.20 | 0.41 | 0.41 | 89 | 1004.7 |
| 20260506191005 | 16 | 247 | 0.0 | 3.2 | 0.25 | 0.41 | 0.41 | 89 | 1004.9 |
| 20260506190503 | 16 | 247 | 0.0 | 3.2 | 0.28 | 0.41 | 0.41 | 88 | 1005.0 |
| 20260506190003 | 16 | 247 | 0.0 | 3.2 | 0.30 | 0.41 | 0.41 | 87 | 1005.1 |
| 20260506185600 | 16 | 247 | 0.0 | 1.6 | 0.28 | 0.38 | 0.38 | 87 | 1005.1 |
| 20260506185100 | 16 | 247 | 0.0 | 3.2 | 0.30 | 0.38 | 0.38 | 86 | 1005.2 |
| 20260506184558 | 16 | 247 | 0.0 | 4.8 | 0.30 | 0.36 | 0.36 | 85 | 1005.3 |
| 20260506184058 | 17 | 247 | 1.6 | 4.8 | 0.30 | 0.33 | 0.33 | 85 | 1005.6 |
| 20260506183559 | 17 | 247 | 0.0 | 3.2 | 0.30 | 0.30 | 0.30 | 84 | 1005.6 |
| 20260506183057 | 17 | 247 | 1.6 | 3.2 | 0.28 | 0.28 | 0.28 | 84 | 1005.7 |
| 20260506182555 | 17 | 247 | 0.0 | 1.6 | 0.28 | 0.28 | 0.28 | 83 | 1005.8 |
| 20260506182058 | 17 | 247 | 0.0 | 3.2 | 0.23 | 0.23 | 0.23 | 81 | 1005.9 |
| 20260506181554 | 17 | 247 | 0.0 | 6.4 | 0.20 | 0.20 | 0.20 | 81 | 1005.8 |
| 20260506181054 | 18 | 269 | 1.6 | 6.4 | 0.15 | 0.15 | 0.15 | 79 | 1005.9 |
| 20260506180553 | 18 | 315 | 0.0 | 3.2 | 0.13 | 0.13 | 0.13 | 78 | 1005.8 |
| 20260506180103 | 18 | 315 | 0.0 | 8.0 | 0.10 | 0.10 | 0.10 | 77 | 1006.0 |
| 20260506175553 | 18 | 258 | 0.0 | 8.0 | 0.08 | 0.08 | 0.08 | 75 | 1006.1 |
| 20260506175054 | 19 | 159 | 1.6 | 6.4 | 0.08 | 0.08 | 0.08 | 74 | 1006.1 |
| 20260506174552 | 19 | 168 | 1.6 | 6.4 | 0.05 | 0.05 | 0.05 | 72 | 1006.1 |
| 20260506174052 | 20 | 189 | 3.2 | 6.4 | 0.03 | 0.03 | 0.03 | 70 | 1006.1 |
| 20260506173552 | 20 | 146 | 1.6 | 6.4 | 0.00 | 0.00 | 0.00 | 68 | 1005.9 |
| 20260506173107 | 20 | 170 | 1.6 | 8.0 | 0.00 | 0.00 | 0.00 | 65 | 1005.7 |
| 20260506172555 | 20 | 182 | 3.2 | 8.0 | 0.00 | 0.00 | 0.00 | 64 | 1005.6 |
| 20260506172051 | 20 | 159 | 3.2 | 8.0 | 0.00 | 0.00 | 0.00 | 64 | 1005.4 |
| 20260506171558 | 21 | 169 | 4.8 | 8.0 | 0.00 | 0.00 | 0.00 | 63 | 1005.6 |
| 20260506171051 | 21 | 155 | 3.2 | 8.0 | 0.00 | 0.00 | 0.00 | 62 | 1005.5 |
| 20260506170549 | 21 | 160 | 3.2 | 9.7 | 0.00 | 0.00 | 0.00 | 62 | 1005.6 |
| 20260506170049 | 21 | 180 | 4.8 | 11.3 | 0.00 | 0.00 | 0.00 | 61 | 1005.6 |
| 20260506165549 | 21 | 155 | 6.4 | 11.3 | 0.00 | 0.00 | 0.00 | 60 | 1005.6 |
| 20260506165048 | 21 | 172 | 3.2 | 14.5 | 0.00 | 0.00 | 0.00 | 61 | 1005.6 |
| 20260506164548 | 21 | 178 | 6.4 | 14.5 | 0.00 | 0.00 | 0.00 | 62 | 1005.7 |
| 20260506164051 | 21 | 170 | 3.2 | 9.7 | 0.00 | 0.00 | 0.00 | 62 | 1005.8 |
| 20260506163546 | 21 | 161 | 4.8 | 9.7 | 0.00 | 0.00 | 0.00 | 62 | 1005.9 |
| 20260506163049 | 21 | 165 | 4.8 | 9.7 | 0.00 | 0.00 | 0.00 | 62 | 1005.9 |
| 20260506162546 | 21 | 169 | 3.2 | 9.7 | 0.00 | 0.00 | 0.00 | 62 | 1006.0 |
| 20260506162045 | 21 | 113 | 4.8 | 9.7 | 0.00 | 0.00 | 0.00 | 63 | 1006.1 |
| 20260506161552 | 21 | 154 | 3.2 | 6.4 | 0.00 | 0.00 | 0.00 | 63 | 1006.2 |
| 20260506161042 | 21 | 173 | 3.2 | 8.0 | 0.00 | 0.00 | 0.00 | 64 | 1006.3 |
| 20260506160542 | 20 | 59 | 3.2 | 9.7 | 0.00 | 0.00 | 0.00 | 64 | 1006.4 |